#timestamp,LO_Frequency,Hit,StdDev 
1522364415.3,286046998.8,N
1522364435.1,286046999.6,N
1522364455.9,286046999.5,N
1522364475.7,286046996.8,N
1522364495.5,286046994.9,Y
1522364515.4,286046999.1,P
1522364535.2,286046998.6,P
1522364555.1,286046998.5,P
1522364556.0,286046998.5,Y
1522364575.8,286047000.8,P
1522364595.6,286047002.7,N
1522364615.5,286047002.1,N
1522364635.3,286047000.0,N
1522364655.2,286047000.4,N
1522364675.9,286047002.6,N
1522364695.7,286046999.9,N
1522364715.6,286047001.2,N
1522364735.4,286047002.4,N
1522364755.2,286047002.8,N
1522364775.1,286047001.3,N
1522364776.0,286047001.3,N
1522364795.8,286046999.9,N
1522364815.7,286046999.9,N
1522364835.5,286047001.4,N
1522364855.3,286047004.1,Y
1522364875.2,286047000.3,P
1522364895.0,286047000.2,N
1522364895.9,286047000.2,N
1522364915.8,286046999.7,N
1522364935.6,286047001.2,N
1522364955.4,286047002.0,Y
1522364975.3,286047002.2,P
1522364995.1,286047002.2,N
1522365015.8,286046998.6,N
1522365035.7,286047000.7,N
1522365055.5,286047004.3,Y
1522365075.4,286047000.2,P
1522365095.2,286046999.3,N
1522365115.0,286046998.6,N
1522365115.9,286046998.6,N
1522365135.8,286047000.3,N
1522365155.6,286047003.8,Y
1522365175.5,286047000.4,P
1522365195.3,286047002.7,P
1522365215.1,286046999.1,N
1522365235.9,286046999.0,N
1522365255.7,286046999.4,N
1522365275.5,286046996.5,N
1522365295.4,286046998.5,N
1522365315.2,286047000.9,N
1522365335.1,286047002.4,N
1522365336.0,286047002.4,N
1522365355.8,286047003.7,N
1522365375.6,286047003.2,N
1522365395.5,286047001.8,N
1522365415.3,286047003.9,N
1522365435.2,286047006.0,N
1522365455.9,286047002.9,N
1522365475.7,286047004.0,N
1522365495.6,286047003.5,N
1522365515.4,286047004.4,N
1522365535.2,286047005.8,N
1522365555.1,286047007.5,Y
1522365556.0,286047007.5,P
1522365575.8,286047002.0,N
1522365595.7,286047002.6,N
1522365615.5,286047000.6,N
1522365635.3,286047001.1,N
1522365655.2,286047000.4,N
1522365675.0,286047000.5,N
1522365675.9,286047000.5,N
1522365695.8,286047001.0,N
1522365715.6,286047002.3,N
1522365735.4,286047002.1,N
1522365755.3,286047002.0,N
1522365775.1,286047001.7,N
1522365795.9,286047004.2,N
1522365815.7,286047005.2,N
1522365835.5,286047006.0,Y
1522365855.4,286047004.0,P
1522365875.2,286047002.6,N
1522365895.1,286046998.1,N
1522365896.0,286046998.1,N
1522365915.8,286047004.0,N
1522365935.6,286046999.7,N
1522365955.5,286046999.4,N
1522365975.3,286047001.1,N
1522365995.2,286047001.2,N
1522366015.9,286046998.4,N
1522366035.7,286046997.7,N
1522366055.6,286046999.4,N
1522366075.4,286046999.1,N
1522366095.3,286047000.5,N
1522366115.1,286047000.4,N
1522366135.8,286046998.2,N
1522366155.7,286046999.0,N
1522366175.5,286046997.0,N
1522366195.4,286046997.6,N
1522366215.2,286046995.7,N
1522366235.0,286046996.2,N
1522366235.9,286046996.2,N
1522366255.8,286046995.9,N
1522366275.6,286046993.4,N
1522366295.5,286046993.9,N
1522366315.3,286046994.7,N
1522366335.1,286046992.7,N
1522366355.9,286046990.4,Y
1522366375.7,286046990.9,P
1522366395.6,286046992.5,N
1522366415.4,286046994.7,N
1522366435.2,286046994.2,N
1522366455.1,286046993.9,N
1522366456.0,286046993.9,N
1522366475.8,286046995.1,N
1522366495.7,286046997.6,N
1522366515.5,286046993.4,Y
1522366535.3,286046998.7,P
1522366555.2,286046998.4,N
1522366575.0,286046998.9,N
1522366575.9,286046998.9,N
1522366595.8,286046998.4,N
1522366615.6,286046998.9,N
1522366635.4,286046998.9,N
1522366655.3,286046999.3,N
1522366675.1,286046996.9,N
1522366695.8,286046997.0,N
1522366715.7,286046998.3,N
1522366735.5,286047000.7,N
1522366755.4,286046999.0,N
1522366775.2,286046998.5,N
1522366795.0,286046999.4,N
1522366795.9,286046999.4,N
1522366815.8,286046999.6,N
1522366835.6,286046996.8,N
1522366855.5,286046997.3,N
1522366875.3,286046997.5,N
1522366895.1,286046995.1,Y
1522366915.9,286046999.6,P
1522366935.7,286046996.6,P
1522366955.5,286046996.5,N
1522366975.4,286046999.2,N
1522366995.2,286046997.3,N
1522367015.1,286046998.5,N
1522367016.0,286046998.5,N
1522367035.8,286047001.1,N
1522367055.6,286046998.6,N
1522367075.5,286046999.2,N
1522367095.3,286046998.5,N
1522367115.1,286047000.4,N
1522367135.9,286047000.6,N
1522367155.7,286047000.8,N
1522367175.6,286047000.7,N
1522367195.4,286046998.2,N
1522367215.2,286046999.4,N
1522367235.1,286046996.5,N
1522367236.0,286046996.5,N
1522367255.8,286046998.1,N
1522367275.6,286046998.1,N
1522367295.5,286047000.5,N
1522367315.3,286047002.3,N
1522367335.2,286047001.5,N
1522367355.9,286046999.9,N
1522367375.7,286047001.0,N
1522367395.6,286047001.0,N
1522367415.4,286047000.2,N
1522367435.2,286047000.6,N
1522367455.1,286047000.9,N
1522367456.0,286047000.9,N
1522367475.8,286047002.7,N
1522367495.7,286047000.8,N
1522367515.5,286047001.2,N
1522367535.3,286046998.9,N
1522367555.2,286046998.7,N
1522367575.0,286046998.7,N
1522367575.9,286046998.7,N
1522367595.8,286046999.3,N
1522367615.6,286046999.6,N
1522367635.4,286046996.7,N
1522367655.3,286046999.2,N
1522367675.1,286046999.2,N
1522367695.8,286046997.7,N
1522367715.7,286046997.1,N
1522367735.5,286046997.4,N
1522367755.4,286046999.6,N
1522367775.2,286046997.2,N
1522367795.0,286046998.9,N
1522367795.9,286046998.9,N
1522367815.8,286046999.6,N
1522367835.6,286046996.9,N
1522367855.4,286046996.7,N
1522367875.3,286046997.6,N
1522367895.1,286046998.0,N
1522367915.9,286046997.9,N
1522367935.7,286046995.5,N
1522367955.5,286046995.5,N
1522367975.4,286046995.7,N
1522367995.2,286046995.7,N
